TIANMU-1 09

Last updated on Wed Sep 09 2026 00:02:41 GMT+0000 (Coordinated Universal Time)

1 57401U 23101C 26251.61909228 .00005929 00000+0 20278-3 0 9993 2 57401 97.2474 299.5157 0003258 170.2200 189.9105 15.30622578174408
UTC large
Height (km)
Speed (km/s)
/
Latitude / Longitude
Inclination (degrees)
Orbital Period (minutes)
Azimuth
Elevation
Range (km)
Doppler Factor

Next 0 passes for location: London (51.5072 / 0.1276)

No passes found over London.
TIANMU-1 09